Tracking 28790 objects as of 18-Apr-2024
HD Live streaming from Space Station
objects crossing your sky now

COSMOS 2294 (GLONASS)

Track COSMOS 2294 (GLONASS) now!
COSMOS 2294 (GLONASS) is classified as:


NORAD ID: 23398
Int'l Code: 1994-076C
Perigee: 19,126.5 km
Apogee: 19,147.6 km
Inclination: 64.4 °
Period: 675.7 minutes
Semi major axis: 25508 km
RCS: 1.9393 m2 (large)
Launch date: November 20, 1994
Source: Commonwealth of Independent States (former USSR) (CIS)
Launch site: TYURATAM MISSILE AND SPACE COMPLEX (TTMTR)
Your satellite tracking list
Your tracking list is empty




NASA's NSSDC Master Catalog

Two Line Element Set (TLE):
1 23398U 94076C   24109.36399066  .00000060  00000-0  00000-0 0  9995
2 23398  64.3961  96.0549 0004126  10.8954  33.3538  2.13101884228857
Source of the keplerian elements: AFSPC